This demonstration page uses our WeatherBlox Daily Observations layout. Learn more.

39.29038, -76.61219

Hourly Observations for September 23, 2016

Temp ( °F °C ) Dew Point ( °F °C ) Humidity (%) Winds ( mph kmh ) Pressure ( in mb ) Visibility ( mi km ) Precip ( " mm )
12:54 am 00:54 undefined 73 22.8 61 16.1 66 66 undefined N/A 30.06 1018 N/A 0 0
1:54 am 01:54 undefined 72 22.2 62 16.7 71 71 undefined N/A 30.07 1018 N/A 0 0
2:54 am 02:54 undefined 71 21.7 62 16.7 73 73 undefined N/A 30.06 1018 N/A 0 0
3:54 am 03:54 undefined 69 20.6 62 16.7 78 78 undefined N/A 30.05 1018 N/A 0 0
4:54 am 04:54 undefined 70 21.1 62 16.7 76 76 undefined N/A 30.05 1018 N/A 0 0
5:54 am 05:54 undefined 67 19.4 61 16.1 81 81 undefined N/A 30.05 1018 N/A 0 0
6:54 am 06:54 undefined 67 19.4 61 16.1 81 81 undefined N/A 30.06 1018 N/A 0 0
7:54 am 07:54 undefined 69 20.6 61 16.1 76 76 undefined N/A 30.09 1019 N/A 0 0
8:54 am 08:54 undefined 72 22.2 62 16.7 71 71 undefined N/A 30.09 1019 N/A 0 0
9:54 am 09:54 undefined 75 23.9 63 17.2 66 66 undefined N/A 30.08 1019 N/A 0 0
10:54 am 10:54 undefined 77 25 63 17.2 62 62 undefined N/A 30.07 1018 N/A 0 0
11:54 am 11:54 undefined 82 27.8 63 17.2 53 53 undefined N/A 30.05 1018 N/A 0 0
12:54 pm 12:54 undefined 84 28.9 63 17.2 49 49 undefined N/A 30.03 1017 N/A 0 0
1:54 pm 13:54 undefined 86 30 55 12.8 35 35 undefined N/A 30.01 1016 N/A 0 0
2:54 pm 14:54 undefined 86 30 59 15 40 40 undefined N/A 29.97 1015 N/A 0 0
3:54 pm 15:54 undefined 88 31.1 59 15 38 38 undefined N/A 29.95 1014 N/A 0 0
4:54 pm 16:54 undefined 85 29.4 66 18.9 53 53 undefined N/A 29.95 1014 N/A 0 0
5:54 pm 17:54 undefined 83 28.3 66 18.9 57 57 undefined N/A 29.96 1014 N/A 0 0
6:54 pm 18:54 undefined 82 27.8 66 18.9 58 58 undefined N/A 29.97 1015 N/A 0 0
7:54 pm 19:54 undefined 80 26.7 65 18.3 60 60 undefined N/A 29.96 1015 N/A 0 0
8:54 pm 20:54 undefined 79 26.1 65 18.3 62 62 undefined N/A 29.98 1015 N/A 0 0
9:54 pm 21:54 undefined 77 25 65 18.3 66 66 undefined N/A 29.98 1015 N/A 0 0
10:54 pm 22:54 undefined 77 25 66 18.9 69 69 undefined N/A 29.99 1016 N/A 0 0
11:54 pm 23:54 undefined 76 24.4 66 18.9 72 72 undefined N/A 29.99 1016 N/A 0 0

Powered by AerisWeather